Location: Amsterdam
(30.7274°N, 84.4357°W)
Time: 19:39:53
(UTC+00:00)

S-56A Canister/Altair - Visible Passes

Search period start: 15 February 2026 00:00
Search period end: 25 February 2026 00:00
Orbit: 632 x 2485 km, 38.9° (Epoch: 15 February)

Date Brightness Start Highest point End Pass type
(mag) Time Alt. Az. Time Alt. Az. Time Alt. Az.
15 Feb 10.0 08:28:30 42° NE 08:28:30 42° NE 08:37:13 10° E visible
15 Feb 9.5 10:25:45 33° WNW 10:31:44 82° NNE 10:46:08 10° ESE visible
16 Feb 10.5 07:55:32 28° ENE 07:55:32 28° ENE 08:00:56 10° ENE visible
16 Feb 9.3 09:52:47 51° NW 09:56:08 76° NNE 10:09:57 10° ESE visible
16 Feb 10.0 11:51:00 10° WNW 12:02:08 56° SW 12:16:27 10° SE visible
17 Feb 11.1 07:22:36 16° ENE 07:22:36 16° ENE 07:24:42 10° ENE visible
17 Feb 9.2 09:19:52 68° N 09:20:37 70° NNE 09:33:42 10° ESE visible
17 Feb 9.8 11:17:07 15° WNW 11:26:30 62° SW 11:40:46 10° SE visible
18 Feb 9.5 08:46:59 57° ENE 08:46:59 57° ENE 08:57:26 10° E visible
18 Feb 9.5 10:44:15 27° WNW 10:50:55 68° SSW 11:04:59 10° SE visible
19 Feb 10.2 08:14:10 36° ENE 08:14:10 36° ENE 08:21:09 10° E visible
19 Feb 9.3 10:11:26 45° WNW 10:15:22 75° SSW 10:29:05 10° SE visible
20 Feb 10.8 07:41:24 21° E 07:41:24 21° E 07:44:55 10° E visible
20 Feb 8.9 09:38:40 72° W 09:39:56 82° SSW 09:53:06 10° SE visible
20 Feb 10.3 11:35:58 10° W 11:45:27 35° SW 11:57:37 10° SSE visible
21 Feb 11.3 07:08:41 10° E 07:08:41 10° E 07:08:44 10° E visible
21 Feb 9.2 09:05:58 72° ESE 09:05:58 72° ESE 09:17:03 10° ESE visible
21 Feb 10.0 11:03:15 20° W 11:09:56 39° SW 11:22:14 10° SSE visible
22 Feb 9.9 08:33:19 43° ESE 08:33:19 43° ESE 08:40:59 10° ESE visible
22 Feb 9.6 10:30:35 33° WSW 10:34:28 43° SW 10:46:44 10° SSE visible
23 Feb 9.2 01:37:03 10° SSW 01:38:22 18° SSW 01:38:22 18° SSW visible
23 Feb 10.6 08:00:42 25° ESE 08:00:42 25° ESE 08:04:53 10° ESE visible
23 Feb 9.3 09:57:59 47° SW 09:59:03 48° SW 10:11:07 10° SE visible
24 Feb 8.4 01:02:38 10° SSW 01:05:47 25° SSE 01:05:47 25° SSE visible
24 Feb 11.2 07:28:09 12° ESE 07:28:09 12° ESE 07:28:49 10° ESE visible
24 Feb 9.4 09:25:26 49° S 09:25:26 49° S 09:35:26 10° SE visible
24 Feb 10.5 11:22:43 10° WSW 11:29:01 18° SW 11:36:43 10° S visible
